Location: Wildcat Hills Observatory
(41.6350°N, 103.6812°W)
Time: 00:23:29
(UTC-06:00)

Cosmos 1634 Rocket - Visible Passes

Search period start: 21 August 2017 00:00
Search period end: 31 August 2017 00:00
Orbit: 961 x 991 km, 82.9° (Epoch: 20 August)

Date Brightness Start Highest point End Pass type
(mag) Time Alt. Az. Time Alt. Az. Time Alt. Az.
23 Aug 6.8 05:31:46 10° SE 05:36:04 20° E 05:40:22 10° NE visible
26 Aug 6.8 05:03:43 10° ESE 05:07:30 17° E 05:11:19 10° NE visible
27 Aug 6.1 05:27:17 10° SE 05:32:38 31° E 05:38:02 10° NNE visible
29 Aug 6.9 04:35:48 10° ESE 04:38:57 14° E 04:42:07 10° NE visible
30 Aug 6.2 04:58:58 10° SE 05:04:03 27° E 05:09:10 10° NNE visible
